| time (UTC) | temp F | wind direction | speed MPH | gust MPH | rain 1hr in | rain 24hr in | rain mn in | humidity % | barometer mb |
| 20260903090030 | 74 | 114 | 0.0 | 5.0 | 0.26 | 2.65 | 1.92 | 95 | 1015.4 |
| 20260903084518 | 74 | 215 | 1.0 | 6.0 | 0.27 | 2.60 | 1.87 | 95 | 1015.5 |
| 20260903083023 | 74 | 241 | 1.0 | 4.0 | 0.24 | 2.53 | 1.80 | 95 | 1015.3 |
| 20260903081526 | 74 | 319 | 2.0 | 5.0 | 0.24 | 2.45 | 1.72 | 95 | 1015.3 |
| 20260903080008 | 73 | 182 | 0.0 | 8.0 | 0.32 | 2.39 | 1.66 | 95 | 1015.5 |
| 20260903074514 | 73 | 123 | 4.0 | 14.0 | 0.42 | 2.33 | 1.60 | 94 | 1015.4 |
| 20260903073023 | 74 | 121 | 2.0 | 12.0 | 0.57 | 2.29 | 1.56 | 94 | 1015.4 |
| 20260903071527 | 74 | 130 | 4.0 | 16.0 | 0.71 | 2.21 | 1.48 | 94 | 1015.7 |
| 20260903070026 | 74 | 150 | 3.0 | 11.0 | 0.82 | 2.07 | 1.34 | 95 | 1015.8 |
| 20260903064510 | 75 | 161 | 6.0 | 19.0 | 0.94 | 1.91 | 1.17 | 95 | 1015.8 |
| 20260903063016 | 75 | 246 | 0.0 | 7.0 | 0.96 | 1.72 | 0.99 | 95 | 1015.5 |
| 20260903061533 | 75 | 143 | 1.0 | 19.0 | 0.77 | 1.50 | 0.77 | 95 | 1015.4 |
| 20260903060024 | 75 | 165 | 2.0 | 13.0 | 0.52 | 1.25 | 0.52 | 96 | 1015.4 |
| 20260903054530 | 76 | 136 | 3.0 | 15.0 | 0.24 | 0.97 | 0.24 | 95 | 1015.3 |
| 20260903053010 | 76 | 117 | 6.0 | 14.0 | 0.04 | 0.76 | 0.03 | 95 | 1015.2 |
| 20260903051515 | 76 | 70 | 3.0 | 10.0 | 0.02 | 0.73 | 0.00 | 95 | 1014.9 |
| 20260903050028 | 76 | 130 | 3.0 | 11.0 | 0.03 | 0.73 | 0.00 | 95 | 1015.0 |
| 20260903044527 | 75 | 185 | 4.0 | 10.0 | 0.05 | 0.73 | 0.73 | 95 | 1015.0 |
| 20260903043029 | 75 | 113 | 2.0 | 12.0 | 0.04 | 0.72 | 0.72 | 95 | 1015.1 |
| 20260903041536 | 75 | 97 | 4.0 | 11.0 | 0.06 | 0.71 | 0.71 | 95 | 1015.1 |
| 20260903040019 | 75 | 146 | 4.0 | 11.0 | 0.08 | 0.70 | 0.70 | 94 | 1015.1 |
| 20260903034523 | 75 | 120 | 5.0 | 13.0 | 0.09 | 0.68 | 0.68 | 94 | 1014.9 |
| 20260903033028 | 75 | 123 | 4.0 | 15.0 | 0.11 | 0.68 | 0.68 | 94 | 1014.5 |
| 20260903031529 | 75 | 114 | 1.0 | 8.0 | 0.10 | 0.65 | 0.65 | 94 | 1014.4 |
| 20260903030034 | 75 | 96 | 0.0 | 12.0 | 0.19 | 0.62 | 0.62 | 94 | 1014.6 |
| 20260903024518 | 75 | 150 | 6.0 | 15.0 | 0.31 | 0.58 | 0.58 | 94 | 1014.5 |
| 20260903023027 | 75 | 118 | 1.0 | 8.0 | 0.48 | 0.57 | 0.57 | 94 | 1014.4 |
| 20260903021529 | 75 | 109 | 1.0 | 6.0 | 0.48 | 0.55 | 0.55 | 93 | 1014.0 |
| 20260903020030 | 75 | 121 | 1.0 | 6.0 | 0.42 | 0.43 | 0.43 | 93 | 1013.9 |
| 20260903014520 | 75 | 76 | 2.0 | 8.0 | 0.28 | 0.28 | 0.28 | 92 | 1013.9 |
| 20260903013023 | 76 | 37 | 0.0 | 6.0 | 0.09 | 0.09 | 0.09 | 92 | 1013.5 |
| 20260903011527 | 76 | 51 | 1.0 | 4.0 | 0.07 | 0.07 | 0.07 | 91 | 1013.4 |
| 20260903010037 | 77 | 39 | 1.0 | 6.0 | 0.01 | 0.01 | 0.01 | 87 | 1013.6 |
| 20260903004511 | 78 | 128 | 1.0 | 9.0 | 0.00 | 0.00 | 0.00 | 84 | 1013.5 |
| 20260903003018 | 80 | 71 | 1.0 | 11.0 | 0.00 | 0.00 | 0.00 | 80 | 1013.4 |
| 20260903001523 | 80 | 102 | 2.0 | 11.0 | 0.00 | 0.00 | 0.00 | 80 | 1013.4 |
| 20260903000030 | 80 | 74 | 2.0 | 11.0 | 0.00 | 0.00 | 0.00 | 79 | 1013.4 |
| 20260902234534 | 79 | 142 | 2.0 | 8.0 | 0.00 | 0.00 | 0.00 | 80 | 1013.5 |
| 20260902233017 | 81 | 103 | 2.0 | 14.0 | 0.00 | 0.00 | 0.00 | 78 | 1013.7 |
| 20260902231539 | 82 | 125 | 6.0 | 14.0 | 0.00 | 0.00 | 0.00 | 74 | 1013.5 |
| 20260902230029 | 83 | 71 | 4.0 | 22.0 | 0.00 | 0.00 | 0.00 | 74 | 1013.3 |
| 20260902224530 | 83 | 20 | 3.0 | 14.0 | 0.00 | 0.00 | 0.00 | 73 | 1013.1 |
| 20260902223038 | 84 | 71 | 2.0 | 18.0 | 0.00 | 0.00 | 0.00 | 70 | 1013.3 |
| 20260902221534 | 84 | 206 | 7.0 | 20.0 | 0.00 | 0.00 | 0.00 | 70 | 1013.2 |
| 20260902220032 | 84 | 120 | 2.0 | 19.0 | 0.00 | 0.00 | 0.00 | 70 | 1013.4 |
| 20260902214530 | 84 | 60 | 3.0 | 16.0 | 0.00 | 0.00 | 0.00 | 70 | 1013.5 |
| 20260902213031 | 85 | 102 | 4.0 | 19.0 | 0.00 | 0.00 | 0.00 | 68 | 1013.4 |
| 20260902211531 | 87 | 124 | 2.0 | 11.0 | 0.00 | 0.00 | 0.00 | 68 | 1013.4 |
| 20260902210030 | 87 | 104 | 6.0 | 22.0 | 0.00 | 0.00 | 0.00 | 66 | 1013.6 |
| 20260902204528 | 87 | 329 | 1.0 | 13.0 | 0.00 | 0.00 | 0.00 | 66 | 1013.5 |
| 20260902203007 | 87 | 59 | 3.0 | 12.0 | 0.00 | 0.00 | 0.00 | 67 | 1013.6 |
| 20260902201513 | 87 | 96 | 3.0 | 13.0 | 0.00 | 0.00 | 0.00 | 67 | 1013.7 |
| 20260902200019 | 86 | 74 | 3.0 | 13.0 | 0.00 | 0.00 | 0.00 | 69 | 1013.9 |
| 20260902194512 | 86 | 338 | 2.0 | 9.0 | 0.00 | 0.00 | 0.00 | 68 | 1013.9 |
| 20260902193007 | 87 | 24 | 1.0 | 14.0 | 0.00 | 0.00 | 0.00 | 69 | 1014.0 |
| 20260902191508 | 86 | 49 | 3.0 | 12.0 | 0.00 | 0.00 | 0.00 | 69 | 1014.1 |
| 20260902190015 | 86 | 76 | 2.0 | 14.0 | 0.00 | 0.00 | 0.00 | 70 | 1014.2 |
| 20260902184529 | 85 | 113 | 3.0 | 13.0 | 0.00 | 0.00 | 0.00 | 72 | 1014.7 |
| 20260902183005 | 85 | 74 | 2.0 | 13.0 | 0.00 | 0.00 | 0.00 | 71 | 1014.9 |
| 20260902181507 | 84 | 89 | 5.0 | 18.0 | 0.00 | 0.00 | 0.00 | 72 | 1015.3 |
| 20260902180012 | 85 | 134 | 4.0 | 14.0 | 0.00 | 0.00 | 0.00 | 70 | 1015.5 |
| 20260902174515 | 86 | 99 | 2.0 | 14.0 | 0.00 | 0.00 | 0.00 | 69 | 1015.5 |
| 20260902173027 | 87 | 96 | 5.0 | 13.0 | 0.00 | 0.00 | 0.00 | 66 | 1015.4 |
| 20260902171504 | 88 | 24 | 1.0 | 13.0 | 0.00 | 0.00 | 0.00 | 67 | 1015.3 |
| 20260902170015 | 87 | 119 | 1.0 | 8.0 | 0.00 | 0.00 | 0.00 | 68 | 1015.6 |
| 20260902164513 | 85 | 63 | 2.0 | 10.0 | 0.00 | 0.00 | 0.00 | 73 | 1015.9 |
| 20260902163018 | 84 | 102 | 4.0 | 12.0 | 0.00 | 0.00 | 0.00 | 75 | 1016.2 |
| 20260902161536 | 83 | 80 | 3.0 | 9.0 | 0.00 | 0.00 | 0.00 | 77 | 1016.3 |
| 20260902160028 | 83 | 104 | 2.0 | 10.0 | 0.00 | 0.00 | 0.00 | 78 | 1016.1 |
| 20260902154513 | 82 | 19 | 2.0 | 8.0 | 0.00 | 0.00 | 0.00 | 81 | 1016.3 |
| 20260902153016 | 82 | 65 | 0.0 | 8.0 | 0.00 | 0.00 | 0.00 | 82 | 1016.2 |
| 20260902151528 | 82 | 46 | 2.0 | 6.0 | 0.00 | 0.00 | 0.00 | 83 | 1016.3 |
| 20260902150030 | 81 | 38 | 2.0 | 7.0 | 0.00 | 0.00 | 0.00 | 82 | 1016.2 |
| 20260902144530 | 81 | 88 | 1.0 | 10.0 | 0.00 | 0.00 | 0.00 | 82 | 1016.3 |
| 20260902143013 | 82 | 64 | 1.0 | 5.0 | 0.00 | 0.00 | 0.00 | 82 | 1016.2 |
| 20260902141503 | 81 | 48 | 0.0 | 4.0 | 0.00 | 0.00 | 0.00 | 84 | 1016.3 |
| 20260902140011 | 80 | 123 | 1.0 | 6.0 | 0.00 | 0.00 | 0.00 | 85 | 1016.3 |
| 20260902134517 | 79 | 11 | 0.0 | 6.0 | 0.00 | 0.00 | 0.00 | 87 | 1016.3 |
| 20260902133016 | 78 | 227 | 0.0 | 4.0 | 0.00 | 0.00 | 0.00 | 88 | 1016.3 |
| 20260902131515 | 77 | 34 | 1.0 | 6.0 | 0.00 | 0.00 | 0.00 | 89 | 1016.1 |
| 20260902130004 | 76 | 40 | 0.0 | 4.0 | 0.00 | 0.00 | 0.00 | 90 | 1016.2 |
| 20260902124504 | 75 | 65 | 0.0 | 3.0 | 0.00 | 0.00 | 0.00 | 90 | 1016.3 |
| 20260902123011 | 75 | 156 | 0.0 | 3.0 | 0.00 | 0.00 | 0.00 | 90 | 1016.3 |
| 20260902121515 | 75 | 86 | 0.0 | 3.0 | 0.00 | 0.00 | 0.00 | 89 | 1016.2 |
| 20260902120019 | 75 | 76 | 0.0 | 1.0 | 0.00 | 0.00 | 0.00 | 89 | 1016.1 |
| 20260902114508 | 75 | 91 | 0.0 | 0.0 | 0.00 | 0.00 | 0.00 | 88 | 1016.2 |
| 20260902113008 | 75 | 92 | 0.0 | 1.0 | 0.00 | 0.00 | 0.00 | 88 | 1016.0 |
| 20260902111509 | 75 | 92 | 0.0 | 0.0 | 0.00 | 0.00 | 0.00 | 87 | 1015.8 |
| 20260902110027 | 76 | 92 | 0.0 | 0.0 | 0.00 | 0.00 | 0.00 | 87 | 1015.9 |
| 20260902104544 | 76 | 92 | 0.0 | 0.0 | 0.00 | 0.00 | 0.00 | 86 | 1015.9 |
| 20260902103029 | 76 | 92 | 0.0 | 0.0 | 0.00 | 0.00 | 0.00 | 86 | 1015.8 |
| 20260902101508 | 77 | 92 | 0.0 | 0.0 | 0.00 | 0.00 | 0.00 | 85 | 1016.1 |
| 20260902100013 | 77 | 92 | 0.0 | 0.0 | 0.00 | 0.00 | 0.00 | 85 | 1016.1 |
| 20260902094518 | 77 | 92 | 0.0 | 0.0 | 0.00 | 0.00 | 0.00 | 84 | 1015.6 |
| 20260902093027 | 77 | 69 | 0.0 | 0.0 | 0.00 | 0.00 | 0.00 | 83 | 1015.7 |
| 20260902091530 | 78 | 69 | 0.0 | 1.0 | 0.00 | 0.00 | 0.00 | 83 | 1015.8 |